map of KUO home
KUO - Airport
Location
City:  Kuopio, Pohjois-Savo (Norra Savolax, Northern Savonia), Finland
Name:Kuopio Airport
Old (Alt.):Kuopio AB
ICAO:EFKU
IATA:KUO

Details
Type:Airport (Aerodrome, Airfield)
Use:Public/Civil, Military
Latitude:6300'26"N (63.007150)
Longitude:2747'52"E (27.797756)
Datum:WGS 1984
Elevation:323 ft (98 m)
Variation:10.99E (WMM2015 magnetic declination)
0.17 annual change
Runways:2
Longest:9186 × 197 ft (2800 × 60 m), paved

Time
Time Zone:UTC+2 (DST+3)
Local Time:

Weather
METAR:EFKU 171420Z AUTO 24007KT CAVOK 07/03 Q1003
TAF:EFKU 171133Z 1712/1812 26010KT 9999 FEW025
TEMPO 1723/1808 3000 BR BKN003
TEMPO 1808/1812 BKN007

Related Locations
Nearby:
Farthest:NZTB: 11121 mi / 17897 km
Terra Nova Bay [Mario Zucchelli Station], AQ

Find:

   beyond  
but within

Other Information
Maps:
NOTAMs:
Links:
Sources:

  
flag of Finland   

Sectional Chart

Flight Planning
at skyvector.com

Satellite Image

Google Maps Satellite view

 

Copyright © 2004-2017 Karl L. Swartz. All rights reserved.
The Great Circle Mapper name and logo are trademarks of the Great Circle Mapper.
All other trademarks mentioned herein belong to their respective owners.
Please see credits for attibutions and further copyright information.

  Follow gcmap on Facebook Follow gcmap on Twitter Follow gcmap on Google+ GCmap on LinkedIn

hCard Microformat

Geo Microformat